| time (UTC) | temp C | wind direction | speed KPH | gust KPH | rain 1hr cm | rain 24hr cm | rain mn cm | humidity % | barometer mb |
| 20260507002305 | 12 | 295 | 1.6 | 3.2 | 0.00 | 2.87 | 0.00 | 80 | 1013.4 |
| 20260507001803 | 12 | 295 | 1.6 | 3.2 | 0.00 | 2.87 | 0.00 | 80 | 1013.3 |
| 20260507001302 | 12 | 295 | 1.6 | 4.8 | 0.00 | 2.87 | 0.00 | 80 | 1013.4 |
| 20260507000802 | 12 | 295 | 1.6 | 4.8 | 0.00 | 2.87 | 0.00 | 80 | 1013.4 |
| 20260507000302 | 12 | 300 | 1.6 | 4.8 | 0.00 | 2.87 | 0.00 | 80 | 1013.4 |
| 20260506235802 | 12 | 300 | 1.6 | 4.8 | 0.00 | 2.87 | 0.00 | 80 | 1013.4 |
| 20260506235306 | 12 | 301 | 1.6 | 4.8 | 0.00 | 2.87 | 0.00 | 80 | 1013.5 |
| 20260506234802 | 12 | 301 | 1.6 | 4.8 | 0.00 | 2.87 | 0.00 | 80 | 1013.5 |
| 20260506234303 | 12 | 237 | 1.6 | 6.4 | 0.00 | 2.87 | 0.00 | 80 | 1013.5 |
| 20260506234051 | 12 | 294 | 3.2 | 6.4 | 0.00 | 2.87 | 0.00 | 80 | 1013.6 |
| 20260506233308 | 12 | 295 | 3.2 | 4.8 | 0.00 | 2.87 | 0.00 | 80 | 1013.6 |
| 20260506232802 | 12 | 283 | 1.6 | 4.8 | 0.00 | 2.87 | 0.00 | 80 | 1013.7 |
| 20260506232306 | 12 | 315 | 1.6 | 4.8 | 0.00 | 2.87 | 0.00 | 80 | 1013.7 |
| 20260506232100 | 12 | 315 | 1.6 | 4.8 | 0.00 | 2.87 | 0.00 | 80 | 1013.6 |
| 20260506231253 | 12 | 260 | 3.2 | 9.7 | 0.00 | 2.87 | 0.00 | 80 | 1013.6 |
| 20260506230751 | 12 | 245 | 3.2 | 9.7 | 0.00 | 2.87 | 0.00 | 80 | 1013.6 |
| 20260506230249 | 12 | 236 | 3.2 | 9.7 | 0.00 | 2.87 | 0.00 | 80 | 1013.5 |
| 20260506225749 | 12 | 224 | 3.2 | 8.0 | 0.00 | 2.87 | 0.00 | 80 | 1013.5 |
| 20260506225249 | 12 | 183 | 1.6 | 6.4 | 0.00 | 2.87 | 0.00 | 80 | 1013.6 |
| 20260506224749 | 12 | 274 | 1.6 | 4.8 | 0.00 | 2.87 | 0.00 | 80 | 1013.6 |
| 20260506224249 | 12 | 225 | 1.6 | 6.4 | 0.00 | 2.87 | 0.00 | 80 | 1013.5 |
| 20260506224035 | 12 | 227 | 1.6 | 6.4 | 0.00 | 2.87 | 0.00 | 80 | 1013.5 |
| 20260506223248 | 12 | 239 | 3.2 | 14.5 | 0.00 | 2.87 | 0.00 | 80 | 1013.4 |
| 20260506222746 | 12 | 291 | 3.2 | 14.5 | 0.00 | 2.87 | 0.00 | 80 | 1013.4 |
| 20260506222250 | 12 | 232 | 3.2 | 9.7 | 0.00 | 2.87 | 0.00 | 79 | 1013.4 |
| 20260506222044 | 12 | 248 | 3.2 | 9.7 | 0.00 | 2.87 | 0.00 | 80 | 1013.4 |
| 20260506221527 | 12 | 207 | 1.6 | 9.7 | 0.00 | 2.87 | 0.00 | 80 | 1013.4 |
| 20260506221031 | 12 | 270 | 1.6 | 8.0 | 0.00 | 2.87 | 0.00 | 80 | 1013.4 |
| 20260506220242 | 12 | 233 | 1.6 | 6.4 | 0.00 | 2.87 | 0.00 | 80 | 1013.5 |
| 20260506215739 | 12 | 305 | 3.2 | 6.4 | 0.00 | 2.87 | 2.87 | 80 | 1013.5 |
| 20260506215242 | 12 | 298 | 3.2 | 6.4 | 0.00 | 2.87 | 2.87 | 80 | 1013.4 |
| 20260506214736 | 12 | 258 | 1.6 | 8.0 | 0.00 | 2.87 | 2.87 | 80 | 1013.5 |
| 20260506214236 | 12 | 207 | 1.6 | 9.7 | 0.00 | 2.87 | 2.87 | 80 | 1013.5 |
| 20260506213737 | 12 | 280 | 1.6 | 9.7 | 0.00 | 2.87 | 2.87 | 80 | 1013.5 |
| 20260506213239 | 12 | 287 | 1.6 | 6.4 | 0.00 | 2.87 | 2.87 | 80 | 1013.5 |
| 20260506212736 | 12 | 280 | 1.6 | 4.8 | 0.00 | 2.87 | 2.87 | 80 | 1013.5 |
| 20260506212239 | 12 | 281 | 1.6 | 6.4 | 0.00 | 2.87 | 2.87 | 80 | 1013.4 |
| 20260506211737 | 12 | 209 | 1.6 | 6.4 | 0.00 | 2.87 | 2.87 | 80 | 1013.5 |
| 20260506211236 | 12 | 258 | 1.6 | 4.8 | 0.00 | 2.87 | 2.87 | 80 | 1013.5 |
| 20260506210733 | 12 | 258 | 1.6 | 4.8 | 0.00 | 2.87 | 2.87 | 80 | 1013.5 |
| 20260506210233 | 12 | 146 | 1.6 | 4.8 | 0.00 | 2.87 | 2.87 | 80 | 1013.5 |
| 20260506205731 | 12 | 243 | 1.6 | 4.8 | 0.00 | 2.87 | 2.87 | 80 | 1013.5 |
| 20260506205232 | 12 | 244 | 1.6 | 4.8 | 0.00 | 2.87 | 2.87 | 80 | 1013.5 |
| 20260506204725 | 12 | 222 | 1.6 | 4.8 | 0.00 | 2.87 | 2.87 | 80 | 1013.5 |
| 20260506204222 | 12 | 147 | 1.6 | 3.2 | 0.00 | 2.87 | 2.87 | 80 | 1013.5 |
| 20260506203712 | 12 | 147 | 1.6 | 3.2 | 0.00 | 2.87 | 2.87 | 80 | 1013.4 |
| 20260506203218 | 12 | 280 | 1.6 | 6.4 | 0.00 | 2.87 | 2.87 | 80 | 1013.4 |
| 20260506203058 | 12 | 284 | 1.6 | 6.4 | 0.00 | 2.87 | 2.87 | 80 | 1013.4 |
| 20260506202801 | 12 | 280 | 1.6 | 6.4 | 0.00 | 2.87 | 2.87 | 80 | 1013.4 |
| 20260506201712 | 12 | 224 | 1.6 | 4.8 | 0.00 | 2.87 | 2.87 | 80 | 1013.3 |
| 20260506201206 | 12 | 224 | 1.6 | 4.8 | 0.00 | 2.87 | 2.87 | 80 | 1013.3 |
| 20260506200707 | 12 | 224 | 0.0 | 4.8 | 0.00 | 2.87 | 2.87 | 80 | 1013.2 |
| 20260506200206 | 12 | 224 | 1.6 | 8.0 | 0.00 | 2.87 | 2.87 | 80 | 1013.1 |
| 20260506195705 | 13 | 277 | 1.6 | 8.0 | 0.00 | 2.87 | 2.87 | 80 | 1013.1 |
| 20260506195209 | 13 | 111 | 0.0 | 3.2 | 0.00 | 2.87 | 2.87 | 80 | 1013.1 |
| 20260506194705 | 13 | 118 | 0.0 | 1.6 | 0.00 | 2.87 | 2.87 | 80 | 1013.0 |
| 20260506194259 | 13 | 118 | 0.0 | 1.6 | 0.00 | 2.87 | 2.87 | 80 | 1012.8 |
| 20260506194239 | 13 | 118 | 0.0 | 1.6 | 0.00 | 2.87 | 2.87 | 80 | 1012.9 |
| 20260506193208 | 13 | 118 | 0.0 | 3.2 | 0.00 | 2.87 | 2.87 | 80 | 1012.7 |
| 20260506193006 | 13 | 118 | 0.0 | 3.2 | 0.00 | 2.87 | 2.87 | 80 | 1012.6 |
| 20260506192155 | 13 | 118 | 0.0 | 3.2 | 0.00 | 2.87 | 2.87 | 80 | 1012.6 |
| 20260506191652 | 13 | 118 | 0.0 | 3.2 | 0.00 | 2.87 | 2.87 | 80 | 1012.5 |
| 20260506191156 | 13 | 118 | 1.6 | 6.4 | 0.00 | 2.87 | 2.87 | 80 | 1012.4 |
| 20260506190655 | 13 | 117 | 3.2 | 9.7 | 0.00 | 2.87 | 2.87 | 79 | 1012.4 |
| 20260506190151 | 13 | 170 | 3.2 | 9.7 | 0.00 | 2.87 | 2.87 | 79 | 1012.3 |
| 20260506185654 | 13 | 162 | 3.2 | 12.9 | 0.00 | 2.87 | 2.87 | 79 | 1012.2 |
| 20260506185152 | 13 | 199 | 4.8 | 12.9 | 0.00 | 2.87 | 2.87 | 79 | 1012.1 |
| 20260506184652 | 13 | 165 | 3.2 | 11.3 | 0.00 | 2.87 | 2.87 | 80 | 1012.1 |
| 20260506184152 | 13 | 129 | 3.2 | 11.3 | 0.00 | 2.87 | 2.87 | 80 | 1012.1 |
| 20260506183653 | 13 | 184 | 3.2 | 9.7 | 0.00 | 2.87 | 2.87 | 79 | 1011.9 |
| 20260506183151 | 13 | 199 | 3.2 | 6.4 | 0.00 | 2.87 | 2.87 | 79 | 1012.0 |
| 20260506182652 | 13 | 138 | 3.2 | 8.0 | 0.00 | 2.87 | 2.87 | 79 | 1011.9 |
| 20260506182153 | 13 | 215 | 3.2 | 8.0 | 0.00 | 2.87 | 2.87 | 79 | 1011.9 |
| 20260506181651 | 13 | 221 | 3.2 | 9.7 | 0.00 | 2.87 | 2.87 | 79 | 1011.9 |
| 20260506181145 | 13 | 271 | 3.2 | 9.7 | 0.00 | 2.87 | 2.87 | 79 | 1011.7 |
| 20260506180638 | 13 | 208 | 4.8 | 14.5 | 0.00 | 2.87 | 2.87 | 79 | 1011.5 |
| 20260506180135 | 13 | 142 | 4.8 | 14.5 | 0.00 | 2.87 | 2.87 | 79 | 1011.5 |
| 20260506175921 | 13 | 165 | 3.2 | 11.3 | 0.00 | 2.87 | 2.87 | 79 | 1011.5 |
| 20260506175135 | 13 | 114 | 3.2 | 11.3 | 0.00 | 2.87 | 2.87 | 78 | 1011.4 |
| 20260506174633 | 13 | 59 | 4.8 | 12.9 | 0.00 | 2.87 | 2.87 | 78 | 1011.4 |
| 20260506174132 | 13 | 199 | 4.8 | 12.9 | 0.00 | 2.87 | 2.87 | 78 | 1011.4 |
| 20260506173633 | 13 | 141 | 4.8 | 17.7 | 0.00 | 2.87 | 2.87 | 78 | 1011.3 |
| 20260506173132 | 13 | 79 | 4.8 | 17.7 | 0.00 | 2.87 | 2.87 | 78 | 1011.3 |
| 20260506172632 | 13 | 168 | 4.8 | 14.5 | 0.00 | 2.87 | 2.87 | 78 | 1011.2 |
| 20260506172133 | 13 | 154 | 4.8 | 14.5 | 0.00 | 2.87 | 2.87 | 78 | 1011.3 |
| 20260506171637 | 13 | 175 | 4.8 | 12.9 | 0.00 | 2.87 | 2.87 | 78 | 1011.2 |
| 20260506171133 | 13 | 187 | 6.4 | 14.5 | 0.00 | 2.87 | 2.87 | 78 | 1011.2 |
| 20260506170647 | 13 | 102 | 4.8 | 14.5 | 0.00 | 2.87 | 2.87 | 77 | 1011.3 |
| 20260506170134 | 13 | 183 | 3.2 | 8.0 | 0.00 | 2.87 | 2.87 | 77 | 1011.2 |
| 20260506165635 | 13 | 217 | 4.8 | 16.1 | 0.00 | 2.87 | 2.87 | 78 | 1011.2 |
| 20260506165135 | 13 | 97 | 4.8 | 16.1 | 0.00 | 2.87 | 2.87 | 77 | 1011.2 |
| 20260506164634 | 13 | 168 | 4.8 | 12.9 | 0.00 | 2.87 | 2.87 | 77 | 1011.2 |
| 20260506164132 | 14 | 110 | 3.2 | 12.9 | 0.00 | 2.87 | 2.87 | 77 | 1011.2 |
| 20260506163922 | 13 | 185 | 4.8 | 12.9 | 0.00 | 2.87 | 2.87 | 77 | 1011.2 |
| 20260506163133 | 13 | 192 | 6.4 | 19.3 | 0.00 | 2.87 | 2.87 | 77 | 1011.2 |
| 20260506162632 | 14 | 185 | 4.8 | 19.3 | 0.00 | 2.87 | 2.87 | 77 | 1011.4 |
| 20260506162332 | 14 | 116 | 4.8 | 12.9 | 0.00 | 2.87 | 2.87 | 78 | 1011.2 |
| 20260506162246 | 14 | 209 | 4.8 | 14.5 | 0.00 | 2.87 | 2.87 | 77 | 1011.3 |
| 20260506161146 | 14 | 176 | 3.2 | 11.3 | 0.00 | 2.87 | 2.87 | 77 | 1011.3 |
| 20260506160643 | 14 | 120 | 3.2 | 9.7 | 0.00 | 2.87 | 2.87 | 78 | 1011.2 |
| 20260506160555 | 14 | 195 | 6.4 | 17.7 | 0.00 | 2.87 | 2.87 | 77 | 1011.2 |
| 20260506160542 | 14 | 144 | 4.8 | 14.5 | 0.00 | 2.87 | 2.87 | 78 | 1011.2 |
| 20260506155134 | 14 | 68 | 6.4 | 17.7 | 0.00 | 2.87 | 2.87 | 77 | 1011.1 |
| 20260506154638 | 14 | 162 | 8.0 | 17.7 | 0.00 | 2.87 | 2.87 | 77 | 1011.1 |
| 20260506154128 | 14 | 39 | 6.4 | 17.7 | 0.00 | 2.87 | 2.87 | 77 | 1011.1 |
| 20260506153623 | 14 | 145 | 4.8 | 17.7 | 0.00 | 2.87 | 2.87 | 76 | 1011.2 |
| 20260506153115 | 14 | 142 | 6.4 | 16.1 | 0.00 | 2.87 | 2.87 | 77 | 1011.1 |
| 20260506152605 | 14 | 187 | 6.4 | 16.1 | 0.00 | 2.87 | 2.87 | 76 | 1011.1 |
| 20260506152106 | 14 | 65 | 4.8 | 11.3 | 0.00 | 2.87 | 2.87 | 77 | 1011.1 |
| 20260506151610 | 14 | 118 | 3.2 | 9.7 | 0.00 | 2.87 | 2.87 | 77 | 1011.0 |
| 20260506151108 | 14 | 135 | 4.8 | 14.5 | 0.00 | 2.87 | 2.87 | 77 | 1011.1 |
| 20260506150607 | 14 | 218 | 6.4 | 16.1 | 0.00 | 2.87 | 2.87 | 76 | 1011.0 |
| 20260506150109 | 15 | 99 | 6.4 | 17.7 | 0.00 | 2.87 | 2.87 | 75 | 1011.1 |
| 20260506145606 | 15 | 205 | 4.8 | 17.7 | 0.00 | 2.87 | 2.87 | 75 | 1011.0 |
| 20260506145349 | 15 | 95 | 4.8 | 14.5 | 0.00 | 2.87 | 2.87 | 75 | 1011.1 |
| 20260506144605 | 15 | 212 | 4.8 | 14.5 | 0.00 | 2.87 | 2.87 | 75 | 1011.0 |
| 20260506144105 | 15 | 168 | 4.8 | 14.5 | 0.00 | 2.87 | 2.87 | 75 | 1011.0 |
| 20260506143605 | 15 | 89 | 4.8 | 12.9 | 0.00 | 2.87 | 2.87 | 75 | 1011.0 |
| 20260506143105 | 15 | 81 | 4.8 | 12.9 | 0.00 | 2.87 | 2.87 | 75 | 1011.0 |
| 20260506142841 | 15 | 137 | 6.4 | 16.1 | 0.00 | 2.87 | 2.87 | 75 | 1011.0 |
| 20260506142105 | 15 | 138 | 6.4 | 16.1 | 0.00 | 2.87 | 2.87 | 75 | 1011.0 |
| 20260506141604 | 15 | 199 | 6.4 | 14.5 | 0.00 | 2.87 | 2.87 | 75 | 1011.0 |
| 20260506141107 | 15 | 131 | 8.0 | 17.7 | 0.00 | 2.87 | 2.87 | 76 | 1010.9 |
| 20260506140603 | 15 | 83 | 8.0 | 19.3 | 0.00 | 2.87 | 2.87 | 76 | 1011.0 |
| 20260506140106 | 15 | 173 | 8.0 | 19.3 | 0.00 | 2.87 | 2.87 | 76 | 1011.0 |
| 20260506135604 | 15 | 154 | 6.4 | 17.7 | 0.00 | 2.87 | 2.87 | 77 | 1011.0 |
| 20260506135343 | 15 | 120 | 8.0 | 17.7 | 0.00 | 2.87 | 2.87 | 77 | 1011.0 |
| 20260506134609 | 15 | 107 | 8.0 | 20.9 | 0.00 | 2.87 | 2.87 | 77 | 1011.1 |
| 20260506134106 | 15 | 100 | 8.0 | 20.9 | 0.00 | 2.87 | 2.87 | 77 | 1011.1 |
| 20260506133901 | 15 | 141 | 6.4 | 14.5 | 0.00 | 2.87 | 2.87 | 78 | 1011.2 |
| 20260506133110 | 15 | 170 | 6.4 | 17.7 | 0.00 | 2.87 | 2.87 | 79 | 1011.2 |
| 20260506132609 | 15 | 156 | 6.4 | 17.7 | 0.00 | 2.87 | 2.87 | 78 | 1011.1 |
| 20260506132103 | 15 | 140 | 6.4 | 14.5 | 0.00 | 2.87 | 2.87 | 79 | 1011.2 |
| 20260506131603 | 14 | 135 | 6.4 | 20.9 | 0.00 | 2.87 | 2.87 | 79 | 1011.2 |
| 20260506131104 | 15 | 183 | 6.4 | 20.9 | 0.00 | 2.87 | 2.87 | 79 | 1011.1 |
| 20260506130607 | 15 | 156 | 4.8 | 12.9 | 0.00 | 2.87 | 2.87 | 79 | 1011.2 |
| 20260506130109 | 15 | 147 | 4.8 | 14.5 | 0.00 | 2.87 | 2.87 | 79 | 1011.2 |
| 20260506125604 | 15 | 131 | 6.4 | 16.1 | 0.00 | 2.87 | 2.87 | 79 | 1011.2 |
| 20260506125144 | 15 | 180 | 4.8 | 16.1 | 0.00 | 2.87 | 2.87 | 78 | 1011.2 |
| 20260506125124 | 15 | 90 | 4.8 | 16.1 | 0.00 | 2.87 | 2.87 | 78 | 1011.1 |
| 20260506124107 | 15 | 153 | 4.8 | 16.1 | 0.00 | 2.87 | 2.87 | 78 | 1011.2 |
| 20260506123604 | 15 | 119 | 4.8 | 16.1 | 0.00 | 2.87 | 2.87 | 78 | 1011.1 |
| 20260506123104 | 15 | 132 | 8.0 | 20.9 | 0.00 | 2.87 | 2.87 | 77 | 1011.2 |
| 20260506122609 | 15 | 164 | 8.0 | 20.9 | 0.00 | 2.87 | 2.87 | 78 | 1011.1 |
| 20260506122106 | 15 | 123 | 6.4 | 17.7 | 0.00 | 2.87 | 2.87 | 78 | 1011.2 |
| 20260506121605 | 15 | 189 | 6.4 | 16.1 | 0.00 | 2.87 | 2.87 | 79 | 1011.1 |
| 20260506121105 | 15 | 182 | 6.4 | 16.1 | 0.00 | 2.87 | 2.87 | 78 | 1011.0 |
| 20260506120606 | 15 | 87 | 4.8 | 14.5 | 0.00 | 2.87 | 2.87 | 78 | 1011.1 |
| 20260506120111 | 15 | 179 | 4.8 | 20.9 | 0.00 | 2.87 | 2.87 | 79 | 1011.1 |
| 20260506115608 | 15 | 78 | 6.4 | 20.9 | 0.00 | 2.87 | 2.87 | 78 | 1011.0 |
| 20260506115105 | 15 | 195 | 4.8 | 16.1 | 0.00 | 2.87 | 2.87 | 79 | 1011.1 |
| 20260506114603 | 15 | 193 | 4.8 | 16.1 | 0.00 | 2.87 | 2.87 | 79 | 1011.1 |
| 20260506114105 | 15 | 204 | 6.4 | 19.3 | 0.00 | 2.87 | 2.87 | 80 | 1011.1 |
| 20260506113607 | 15 | 165 | 6.4 | 19.3 | 0.00 | 2.87 | 2.87 | 80 | 1011.0 |
| 20260506113105 | 15 | 39 | 8.0 | 17.7 | 0.00 | 2.87 | 2.87 | 80 | 1011.0 |
| 20260506112606 | 15 | 139 | 8.0 | 17.7 | 0.00 | 2.87 | 2.87 | 81 | 1011.1 |
| 20260506112103 | 14 | 156 | 8.0 | 24.1 | 0.00 | 2.87 | 2.87 | 81 | 1011.0 |
| 20260506111604 | 14 | 89 | 8.0 | 24.1 | 0.00 | 2.87 | 2.87 | 82 | 1011.0 |
| 20260506111103 | 13 | 114 | 8.0 | 17.7 | 0.00 | 2.87 | 2.87 | 82 | 1011.1 |
| 20260506110618 | 13 | 180 | 8.0 | 16.1 | 0.00 | 2.87 | 2.87 | 82 | 1011.1 |
| 20260506110106 | 13 | 124 | 6.4 | 16.1 | 0.00 | 2.87 | 2.87 | 82 | 1011.1 |
| 20260506105845 | 13 | 149 | 6.4 | 16.1 | 0.00 | 2.87 | 2.87 | 82 | 1011.1 |
| 20260506105059 | 13 | 135 | 6.4 | 16.1 | 0.00 | 2.87 | 2.87 | 82 | 1011.0 |
| 20260506104602 | 13 | 131 | 4.8 | 16.1 | 0.00 | 2.87 | 2.87 | 82 | 1011.0 |
| 20260506104342 | 13 | 106 | 3.2 | 12.9 | 0.00 | 2.87 | 2.87 | 82 | 1011.1 |
| 20260506103600 | 13 | 144 | 3.2 | 9.7 | 0.00 | 2.87 | 2.87 | 82 | 1011.0 |
| 20260506103103 | 13 | 276 | 1.6 | 4.8 | 0.00 | 2.87 | 2.87 | 82 | 1011.0 |
| 20260506102558 | 13 | 156 | 3.2 | 4.8 | 0.00 | 2.87 | 2.87 | 82 | 1011.0 |
| 20260506102057 | 13 | 78 | 1.6 | 4.8 | 0.00 | 2.87 | 2.87 | 82 | 1011.0 |
| 20260506101843 | 14 | 65 | 1.6 | 4.8 | 0.00 | 2.87 | 2.87 | 82 | 1010.9 |
| 20260506101057 | 14 | 34 | 1.6 | 8.0 | 0.00 | 2.87 | 2.87 | 82 | 1010.8 |
| 20260506100558 | 14 | 75 | 1.6 | 8.0 | 0.00 | 2.87 | 2.87 | 82 | 1010.8 |
| 20260506100348 | 14 | 64 | 1.6 | 4.8 | 0.00 | 2.87 | 2.87 | 82 | 1010.8 |
| 20260506095556 | 14 | 64 | 1.6 | 4.8 | 0.00 | 2.87 | 2.87 | 82 | 1010.7 |
| 20260506095056 | 14 | 64 | 1.6 | 4.8 | 0.00 | 2.87 | 2.87 | 82 | 1010.6 |
| 20260506094556 | 14 | 60 | 3.2 | 9.7 | 0.00 | 2.87 | 2.87 | 82 | 1010.5 |
| 20260506094057 | 14 | 78 | 3.2 | 12.9 | 0.00 | 2.87 | 2.87 | 82 | 1010.6 |
| 20260506093554 | 14 | 85 | 3.2 | 12.9 | 0.00 | 2.87 | 2.87 | 82 | 1010.4 |
| 20260506093057 | 14 | 75 | 3.2 | 12.9 | 0.00 | 2.87 | 2.87 | 82 | 1010.4 |
| 20260506092556 | 14 | 89 | 4.8 | 12.9 | 0.00 | 2.87 | 2.87 | 82 | 1010.2 |
| 20260506092339 | 14 | 101 | 6.4 | 17.7 | 0.00 | 2.87 | 2.87 | 82 | 1010.1 |
| 20260506091556 | 14 | 87 | 6.4 | 20.9 | 0.00 | 2.87 | 2.87 | 82 | 1010.1 |
| 20260506091328 | 14 | 118 | 11.3 | 37.0 | 0.00 | 2.87 | 2.87 | 82 | 1010.1 |
| 20260506090553 | 14 | 325 | 14.5 | 37.0 | 0.00 | 2.87 | 2.87 | 82 | 1009.8 |
| 20260506090325 | 14 | 105 | 12.9 | 32.2 | 0.00 | 2.87 | 2.87 | 82 | 1009.7 |
| 20260506085821 | 14 | 169 | 11.3 | 32.2 | 0.00 | 2.87 | 2.87 | 82 | 1009.7 |
| 20260506085323 | 14 | 109 | 11.3 | 32.2 | 0.00 | 2.87 | 2.87 | 82 | 1009.6 |
| 20260506084534 | 14 | 265 | 9.7 | 35.4 | 0.00 | 2.87 | 2.87 | 82 | 1009.4 |
| 20260506084035 | 14 | 164 | 6.4 | 35.4 | 0.00 | 2.87 | 2.87 | 82 | 1009.3 |
| 20260506083537 | 14 | 57 | 6.4 | 16.1 | 0.00 | 2.87 | 2.87 | 82 | 1009.3 |
| 20260506083318 | 14 | 146 | 6.4 | 19.3 | 0.00 | 2.87 | 2.87 | 82 | 1009.5 |
| 20260506082533 | 14 | 166 | 9.7 | 27.4 | 0.00 | 2.87 | 2.87 | 82 | 1009.3 |
| 20260506082038 | 14 | 266 | 14.5 | 30.6 | 0.00 | 2.87 | 2.87 | 82 | 1008.9 |
| 20260506081536 | 14 | 98 | 14.5 | 35.4 | 0.00 | 2.87 | 2.87 | 82 | 1008.8 |
| 20260506081034 | 14 | 152 | 11.3 | 35.4 | 0.00 | 2.87 | 2.87 | 82 | 1008.9 |
| 20260506080534 | 14 | 164 | 11.3 | 32.2 | 0.00 | 2.87 | 2.87 | 82 | 1009.6 |
| 20260506073249 | 14 | 185 | 6.4 | 17.7 | 0.00 | 2.87 | 2.87 | 82 | 1009.4 |
| 20260506072510 | 14 | 158 | 8.0 | 20.9 | 0.00 | 2.87 | 2.87 | 82 | 1009.4 |
| 20260506072008 | 14 | 195 | 9.7 | 22.5 | 0.00 | 2.87 | 2.87 | 82 | 1009.4 |
| 20260506071516 | 14 | 156 | 11.3 | 29.0 | 0.03 | 2.90 | 2.87 | 82 | 1009.3 |
| 20260506071006 | 14 | 161 | 12.9 | 29.0 | 0.15 | 2.90 | 2.87 | 82 | 1009.5 |
| 20260506070505 | 14 | 73 | 11.3 | 29.0 | 0.15 | 2.90 | 2.87 | 82 | 1009.1 |
| 20260506062505 | 13 | 145 | 8.0 | 24.1 | 0.15 | 3.07 | 2.87 | 82 | 1009.6 |
| 20260506062005 | 13 | 204 | 6.4 | 17.7 | 0.15 | 3.25 | 2.87 | 82 | 1009.6 |
| 20260506061505 | 13 | 85 | 6.4 | 17.7 | 0.15 | 3.35 | 2.84 | 82 | 1009.4 |
| 20260506061257 | 13 | 187 | 4.8 | 17.7 | 0.00 | 3.45 | 2.72 | 82 | 1009.6 |
| 20260506060504 | 12 | 172 | 3.2 | 9.7 | 0.00 | 3.71 | 2.72 | 82 | 1009.6 |
| 20260506050958 | 13 | 293 | 3.2 | 11.3 | 0.28 | 4.11 | 2.72 | 82 | 1009.6 |
| 20260506050738 | 13 | 262 | 3.2 | 12.9 | 0.28 | 4.19 | 2.72 | 82 | 1009.7 |
| 20260506044953 | 12 | 249 | 1.6 | 8.0 | 0.28 | 4.42 | 2.72 | 81 | 1009.9 |
| 20260506044454 | 12 | 155 | 0.0 | 3.2 | 0.28 | 4.47 | 2.72 | 81 | 1010.0 |
| 20260506043954 | 13 | 199 | 1.6 | 8.0 | 0.28 | 4.47 | 2.72 | 81 | 1009.8 |
| 20260506043453 | 13 | 226 | 4.8 | 17.7 | 0.28 | 4.52 | 2.72 | 82 | 1009.7 |
| 20260506043251 | 12 | 195 | 3.2 | 14.5 | 0.18 | 4.60 | 2.59 | 81 | 1010.1 |
| 20260506043209 | 13 | 178 | 4.8 | 17.7 | 0.25 | 4.57 | 2.69 | 82 | 1010.0 |
| 20260506041951 | 12 | 289 | 3.2 | 4.8 | 0.03 | 4.65 | 2.46 | 81 | 1009.8 |
| 20260506041449 | 12 | 287 | 3.2 | 6.4 | 0.00 | 4.83 | 2.44 | 81 | 1009.8 |
| 20260506040948 | 12 | 285 | 1.6 | 6.4 | 0.03 | 4.90 | 2.44 | 81 | 1010.1 |
| 20260506040451 | 12 | 320 | 0.0 | 4.8 | 0.03 | 4.93 | 2.44 | 81 | 1010.1 |
| 20260506035948 | 12 | 320 | 0.0 | 1.6 | 0.03 | 4.93 | 2.44 | 81 | 1010.1 |
| 20260506035727 | 12 | 320 | 1.6 | 3.2 | 0.05 | 4.95 | 2.44 | 81 | 1010.2 |
| 20260506034948 | 12 | 320 | 1.6 | 4.8 | 0.23 | 5.00 | 2.44 | 81 | 1010.3 |
| 20260506034445 | 12 | 320 | 1.6 | 4.8 | 0.61 | 5.11 | 2.44 | 80 | 1010.4 |
| 20260506033946 | 12 | 320 | 1.6 | 4.8 | 1.09 | 5.16 | 2.44 | 80 | 1010.3 |
| 20260506033444 | 12 | 320 | 3.2 | 6.4 | 1.35 | 5.23 | 2.44 | 80 | 1010.1 |
| 20260506033227 | 12 | 334 | 3.2 | 6.4 | 1.45 | 5.28 | 2.44 | 80 | 1010.1 |
| 20260506032441 | 12 | 354 | 3.2 | 6.4 | 1.50 | 5.31 | 2.44 | 80 | 1010.2 |
| 20260506031940 | 12 | 20 | 3.2 | 9.7 | 1.57 | 5.31 | 2.44 | 80 | 1010.3 |
| 20260506031437 | 12 | 21 | 1.6 | 9.7 | 1.63 | 5.31 | 2.41 | 80 | 1010.2 |
| 20260506031218 | 12 | 229 | 3.2 | 9.7 | 1.80 | 3.53 | 2.39 | 80 | 1010.1 |
| 20260506031212 | 12 | 110 | 3.2 | 9.7 | 2.06 | 3.53 | 2.21 | 80 | 1010.6 |
| 20260506031204 | 12 | 316 | 3.2 | 8.0 | 1.70 | 3.58 | 1.78 | 80 | 1010.5 |
| 20260506031155 | 12 | 302 | 3.2 | 6.4 | 1.22 | 3.63 | 1.32 | 80 | 1010.0 |
| 20260506031121 | 12 | 300 | 0.0 | 4.8 | 1.65 | 5.31 | 2.41 | 80 | 1010.4 |
| 20260506031019 | 12 | 29 | 1.6 | 6.4 | 1.75 | 5.31 | 2.41 | 80 | 1010.4 |
| 20260506030331 | 12 | 21 | 3.2 | 9.7 | 1.85 | 3.53 | 2.39 | 80 | 1010.3 |
| 20260506023831 | 12 | 14 | 3.2 | 6.4 | 0.99 | 3.68 | 1.09 | 79 | 1010.1 |
| 20260506022927 | 12 | 219 | 3.2 | 9.7 | 0.91 | 3.71 | 0.99 | 79 | 1009.9 |
| 20260506022715 | 12 | 354 | 3.2 | 12.9 | 0.89 | 3.76 | 0.91 | 79 | 1009.9 |
| 20260506021927 | 12 | 24 | 3.2 | 12.9 | 0.81 | 3.78 | 0.84 | 79 | 1010.2 |
| 20260506021426 | 12 | 354 | 1.6 | 4.8 | 0.76 | 3.81 | 0.79 | 78 | 1010.4 |
| 20260506020926 | 12 | 69 | 1.6 | 4.8 | 0.74 | 3.84 | 0.74 | 78 | 1010.3 |
| 20260506020427 | 12 | 173 | 0.0 | 3.2 | 0.69 | 3.86 | 0.69 | 78 | 1010.6 |
| 20260506020217 | 12 | 173 | 1.6 | 4.8 | 0.61 | 3.25 | 0.61 | 78 | 1010.3 |
| 20260506015523 | 13 | 308 | 0.0 | 1.6 | 0.15 | 3.30 | 0.15 | 78 | 1010.7 |
| 20260506015505 | 12 | 173 | 1.6 | 4.8 | 0.51 | 3.28 | 0.51 | 78 | 1010.5 |
| 20260506014426 | 13 | 308 | 1.6 | 3.2 | 0.15 | 3.33 | 0.15 | 78 | 1010.5 |
| 20260506013926 | 13 | 308 | 1.6 | 4.8 | 0.15 | 3.33 | 0.13 | 77 | 1010.5 |
| 20260506013426 | 13 | 308 | 1.6 | 4.8 | 0.13 | 3.33 | 0.13 | 77 | 1010.7 |
| 20260506013217 | 13 | 307 | 1.6 | 3.2 | 0.08 | 3.33 | 0.08 | 77 | 1011.0 |
| 20260506012422 | 13 | 307 | 1.6 | 3.2 | 0.05 | 3.33 | 0.05 | 77 | 1011.0 |
| 20260506011923 | 13 | 307 | 1.6 | 3.2 | 0.05 | 3.35 | 0.05 | 77 | 1011.1 |
| 20260506011800 | 13 | 307 | 1.6 | 4.8 | 0.03 | 3.40 | 0.03 | 76 | 1011.2 |
| 20260506011439 | 13 | 307 | 1.6 | 4.8 | 0.05 | 3.38 | 0.05 | 77 | 1011.1 |
| 20260506010422 | 13 | 302 | 1.6 | 3.2 | 0.00 | 3.43 | 0.00 | 76 | 1011.3 |
| 20260506005923 | 13 | 301 | 1.6 | 3.2 | 0.00 | 3.43 | 0.00 | 76 | 1011.3 |
| 20260506005420 | 13 | 301 | 1.6 | 3.2 | 0.00 | 3.43 | 0.00 | 76 | 1011.3 |
| 20260506005214 | 13 | 289 | 1.6 | 4.8 | 0.00 | 3.45 | 0.00 | 76 | 1011.4 |
| 20260506004421 | 13 | 289 | 1.6 | 6.4 | 0.00 | 3.45 | 0.00 | 76 | 1011.4 |
| 20260506003921 | 13 | 287 | 1.6 | 8.0 | 0.00 | 3.45 | 0.00 | 75 | 1011.5 |
| 20260506003420 | 13 | 298 | 1.6 | 8.0 | 0.00 | 3.45 | 0.00 | 75 | 1011.8 |